GW3910 Weather Reports


Display with metric or nautical units.
time (UTC)temp
F
wind
direction
speed
MPH
gust
MPH
rain 1hr
in
rain 24hr
in
rain mn
in
humidity
%
barometer
mb
20260506172408 59 256 1.0 3.0 0.00 0.00 0.00 86 1012.3
20260506171905 60 284 1.0 6.0 0.00 0.00 0.00 84 1012.5
20260506171402 60 296 2.0 5.0 0.00 0.00 0.00 83 1012.5
20260506170900 60 338 2.0 5.0 0.00 0.00 0.00 83 1012.7
20260506170355 60 227 2.0 5.0 0.00 0.00 0.00 83 1012.5
20260506165849 61 313 3.0 5.0 0.00 0.00 0.00 82 1012.5
20260506165347 61 320 1.0 6.0 0.00 0.00 0.00 82 1012.6
20260506164843 61 302 2.0 6.0 0.00 0.00 0.00 81 1012.6
20260506164339 61 341 3.0 6.0 0.00 0.00 0.00 81 1012.5
20260506163838 62 300 2.0 10.0 0.00 0.00 0.00 81 1012.7
20260506163332 62 185 5.0 7.0 0.00 0.00 0.00 80 1012.6
20260506162827 62 205 1.0 6.0 0.00 0.00 0.00 79 1012.3
20260506162325 62 136 3.0 3.0 0.00 0.00 0.00 80 1012.5
20260506161823 62 230 4.0 9.0 0.00 0.00 0.00 79 1012.8
20260506161319 62 220 3.0 7.0 0.00 0.00 0.00 79 1012.6
20260506160818 63 194 3.0 6.0 0.00 0.00 0.00 79 1012.8
20260506160314 62 214 5.0 8.0 0.00 0.00 0.00 79 1013.0
20260506155813 62 158 3.0 8.0 0.00 0.00 0.00 80 1012.9
20260506155309 62 186 2.0 3.0 0.00 0.00 0.00 80 1013.1
20260506153421 63 345 1.0 7.0 0.00 0.00 0.00 78 1013.1
20260506152918 64 193 4.0 14.0 0.00 0.00 0.00 77 1013.0
20260506152415 64 333 2.0 3.0 0.00 0.00 0.00 77 1013.0
20260506151914 64 239 3.0 8.0 0.00 0.00 0.00 77 1012.7
20260506151410 65 343 3.0 6.0 0.00 0.00 0.00 76 1013.0
20260506150908 65 222 2.0 3.0 0.00 0.00 0.00 75 1013.0
20260506150404 66 314 1.0 6.0 0.00 0.00 0.00 74 1013.2
20260506145901 66 261 3.0 5.0 0.00 0.00 0.00 74 1013.0
20260506145357 66 191 2.0 5.0 0.00 0.00 0.00 74 1013.1
20260506144855 66 247 5.0 6.0 0.00 0.00 0.00 74 1013.2
20260506144351 65 173 3.0 8.0 0.00 0.00 0.00 76 1013.0
20260506143850 65 156 3.0 6.0 0.00 0.00 0.00 74 1013.2
20260506143346 65 215 5.0 8.0 0.00 0.00 0.00 73 1013.5
20260506142845 65 232 3.0 6.0 0.00 0.00 0.00 76 1013.2
20260506142342 64 239 3.0 8.0 0.00 0.00 0.00 77 1013.3
20260506141840 64 193 4.0 5.0 0.00 0.00 0.00 75 1013.3
20260506141338 65 187 1.0 8.0 0.00 0.00 0.00 76 1013.4
20260506140836 64 312 1.0 5.0 0.00 0.00 0.00 76 1013.2
20260506140332 64 1 3.0 5.0 0.00 0.00 0.00 76 1013.3
20260506135829 64 300 5.0 6.0 0.00 0.00 0.00 77 1013.1
20260506135326 64 233 5.0 7.0 0.00 0.00 0.00 76 1013.3
20260506134822 64 276 5.0 6.0 0.00 0.00 0.00 76 1013.2
20260506134319 63 219 2.0 5.0 0.00 0.00 0.00 78 1013.1
20260506133816 62 354 2.0 7.0 0.00 0.00 0.00 79 1012.9
20260506133313 62 249 2.0 6.0 0.00 0.00 0.00 79 1013.0
20260506132809 63 170 3.0 6.0 0.00 0.00 0.00 78 1013.1
20260506132307 63 297 2.0 6.0 0.00 0.00 0.00 78 1012.9
20260506131805 63 214 1.0 7.0 0.00 0.00 0.00 79 1013.1
20260506131300 62 232 2.0 6.0 0.00 0.00 0.00 79 1013.0
20260506130757 62 310 3.0 7.0 0.00 0.00 0.00 80 1013.2
20260506130254 62 317 4.0 7.0 0.00 0.00 0.00 79 1013.2
20260506125752 62 161 1.0 6.0 0.00 0.00 0.00 79 1013.1
20260506125250 62 246 3.0 6.0 0.00 0.00 0.00 80 1013.3
20260506124748 62 256 4.0 7.0 0.00 0.00 0.00 79 1013.4
20260506124245 62 333 2.0 7.0 0.00 0.00 0.00 80 1013.5
20260506123743 62 310 2.0 6.0 0.00 0.00 0.00 81 1013.6
20260506123242 61 317 3.0 6.0 0.00 0.00 0.00 82 1013.6
20260506122738 61 225 3.0 7.0 0.00 0.00 0.00 82 1013.4
20260506122235 60 290 2.0 7.0 0.00 0.00 0.00 83 1013.5
20260506121733 60 256 6.0 8.0 0.00 0.00 0.00 84 1013.4
20260506121229 59 306 5.0 6.0 0.00 0.00 0.00 85 1013.4
20260506120727 59 274 1.0 7.0 0.00 0.00 0.00 86 1013.5
20260506120225 59 297 1.0 5.0 0.00 0.00 0.00 86 1013.5
20260506115722 59 317 2.0 5.0 0.00 0.00 0.00 86 1013.6
20260506115220 59 310 5.0 9.0 0.00 0.00 0.00 87 1013.3
20260506114718 59 179 2.0 6.0 0.00 0.00 0.00 87 1013.6
20260506114215 59 316 3.0 3.0 0.00 0.00 0.00 87 1013.4
20260506113713 59 303 3.0 9.0 0.00 0.00 0.00 87 1013.5
20260506113211 59 309 2.0 3.0 0.00 0.00 0.00 88 1013.6
20260506112707 58 210 5.0 6.0 0.00 0.00 0.00 89 1013.7
20260506112205 57 259 1.0 7.0 0.00 0.00 0.00 90 1013.6
20260506111702 57 236 4.0 7.0 0.00 0.00 0.00 90 1013.7
20260506111159 57 249 2.0 5.0 0.00 0.00 0.00 91 1013.8
20260506110656 57 240 2.0 5.0 0.00 0.00 0.00 91 1013.7
20260506110154 57 311 3.0 5.0 0.00 0.00 0.00 91 1013.5
20260506105650 56 237 1.0 5.0 0.00 0.00 0.00 92 1013.6
20260506105147 56 27 1.0 3.0 0.00 0.00 0.00 92 1013.7
20260506104646 56 215 3.0 6.0 0.00 0.00 0.00 92 1013.7
20260506104143 56 234 2.0 3.0 0.00 0.00 0.00 93 1013.6
20260506103640 56 214 2.0 5.0 0.00 0.00 0.00 93 1013.7
20260506103137 56 234 2.0 5.0 0.00 0.00 0.00 93 1013.7
20260506102635 56 154 2.0 7.0 0.00 0.00 0.00 93 1013.7
20260506102132 55 251 2.0 5.0 0.00 0.00 0.00 93 1013.5
20260506101629 55 272 2.0 6.0 0.00 0.00 0.00 93 1013.5
20260506101125 55 199 2.0 3.0 0.00 0.00 0.00 93 1013.5
20260506100624 55 254 3.0 6.0 0.00 0.00 0.00 92 1013.6
20260506100121 56 252 3.0 3.0 0.00 0.00 0.00 92 1013.6
20260506095620 55 195 2.0 5.0 0.00 0.00 0.00 92 1013.6
20260506095116 56 237 1.0 5.0 0.00 0.00 0.00 92 1013.6
20260506094614 56 282 3.0 3.0 0.00 0.00 0.00 92 1013.6
20260506094111 56 251 1.0 5.0 0.00 0.00 0.00 92 1013.2
20260506093610 56 273 1.0 2.0 0.00 0.00 0.00 91 1013.4
20260506093107 56 339 2.0 6.0 0.00 0.00 0.00 91 1013.4
20260506092605 56 246 2.0 3.0 0.00 0.00 0.00 91 1013.4
20260506092101 56 275 1.0 5.0 0.00 0.00 0.00 91 1013.3
20260506091600 56 248 3.0 5.0 0.00 0.00 0.00 91 1013.6
20260506091057 56 238 1.0 5.0 0.00 0.00 0.00 91 1013.6
20260506090554 56 245 1.0 3.0 0.00 0.00 0.00 90 1013.5
20260506090050 56 228 4.0 7.0 0.00 0.00 0.00 90 1013.6
20260506085547 56 184 2.0 3.0 0.00 0.00 0.00 90 1013.9
20260506085044 56 335 3.0 6.0 0.00 0.00 0.00 90 1013.7
20260506084541 56 234 2.0 7.0 0.00 0.00 0.00 90 1013.7
20260506084037 56 213 3.0 5.0 0.00 0.00 0.00 90 1013.6
20260506083534 56 250 3.0 6.0 0.00 0.00 0.00 89 1013.7
20260506083032 56 179 4.0 6.0 0.00 0.00 0.00 89 1013.7
20260506082528 56 230 2.0 5.0 0.00 0.00 0.00 89 1013.6
20260506082024 56 309 1.0 3.0 0.00 0.00 0.00 89 1013.8
20260506081522 57 224 2.0 6.0 0.00 0.00 0.00 89 1013.7
20260506081020 56 228 1.0 6.0 0.00 0.00 0.00 89 1013.7
20260506080517 56 236 1.0 2.0 0.00 0.00 0.00 89 1014.0
20260506073500 57 70 1.0 3.0 0.00 0.00 0.00 88 1013.9
20260506072957 57 247 2.0 5.0 0.00 0.00 0.00 87 1013.9
20260506072454 57 232 3.0 5.0 0.00 0.00 0.00 87 1013.8
20260506071952 57 185 2.0 3.0 0.00 0.00 0.00 87 1013.9
20260506071450 57 231 4.0 8.0 0.00 0.00 0.00 87 1014.0
20260506070947 57 251 2.0 3.0 0.00 0.00 0.00 87 1013.9
20260506070444 57 201 3.0 3.0 0.00 0.00 0.00 86 1013.7
20260506062422 57 282 1.0 5.0 0.00 0.00 0.00 85 1013.6
20260506061917 58 177 3.0 5.0 0.00 0.00 0.00 85 1014.0
20260506061414 58 194 3.0 6.0 0.00 0.00 0.00 84 1013.9
20260506060912 58 324 2.0 7.0 0.00 0.00 0.00 84 1013.9
20260506060410 58 274 0.0 5.0 0.00 0.00 0.00 84 1014.2
20260506051342 58 240 3.0 5.0 0.00 0.00 0.00 83 1014.2
20260506050839 59 3 4.0 7.0 0.00 0.00 0.00 82 1014.4
20260506050336 59 280 2.0 3.0 0.00 0.00 0.00 83 1014.5
20260506044827 59 269 2.0 7.0 0.00 0.00 0.00 82 1014.4
20260506044325 59 233 6.0 9.0 0.00 0.00 0.00 82 1014.5
20260506043821 59 255 1.0 3.0 0.00 0.00 0.00 82 1014.4
20260506043319 59 192 3.0 8.0 0.00 0.00 0.00 81 1014.4
20260506042817 59 297 5.0 7.0 0.00 0.00 0.00 82 1014.3
20260506042316 59 305 6.0 10.0 0.00 0.00 0.00 81 1014.4
20260506041814 59 131 6.0 7.0 0.00 0.00 0.00 81 1014.6
20260506041311 59 259 5.0 6.0 0.00 0.00 0.00 81 1014.5
20260506040808 59 219 4.0 6.0 0.00 0.00 0.00 81 1014.5
20260506040305 59 190 3.0 5.0 0.00 0.00 0.00 81 1014.7
20260506035801 59 260 3.0 6.0 0.00 0.00 0.00 80 1014.5
20260506035259 59 305 6.0 11.0 0.00 0.00 0.00 80 1014.6
20260506034756 59 193 3.0 3.0 0.00 0.00 0.00 80 1014.6
20260506034253 60 224 2.0 6.0 0.00 0.00 0.00 79 1014.5
20260506033749 60 235 3.0 10.0 0.00 0.00 0.00 78 1014.4
20260506033247 60 259 1.0 6.0 0.00 0.00 0.00 78 1014.8
20260506032744 60 265 3.0 6.0 0.00 0.00 0.00 78 1014.6
20260506032241 60 241 3.0 6.0 0.00 0.00 0.00 77 1014.6
20260506031737 60 267 2.0 5.0 0.00 0.00 0.00 76 1014.8
20260506031235 60 156 1.0 7.0 0.00 0.00 0.00 76 1014.5
20260506030733 60 183 4.0 5.0 0.00 0.00 0.00 75 1014.4
20260506030230 61 329 2.0 3.0 0.00 0.00 0.00 74 1014.6
20260506025721 61 309 3.0 7.0 0.00 0.00 0.00 74 1014.4
20260506025218 61 228 3.0 5.0 0.00 0.00 0.00 73 1014.7
20260506024715 61 249 4.0 6.0 0.00 0.00 0.00 73 1014.5
20260506024212 61 247 4.0 7.0 0.00 0.00 0.00 73 1014.6
20260506023708 61 205 3.0 5.0 0.00 0.00 0.00 73 1014.6
20260506023205 61 221 2.0 3.0 0.00 0.00 0.00 72 1014.5
20260506022702 61 236 2.0 6.0 0.00 0.00 0.00 73 1014.4
20260506022200 61 299 2.0 5.0 0.00 0.00 0.00 73 1014.4
20260506021658 61 185 5.0 8.0 0.00 0.00 0.00 74 1014.5
20260506021154 61 215 2.0 3.0 0.00 0.00 0.00 73 1014.5
20260506020651 61 165 3.0 6.0 0.00 0.00 0.00 73 1014.3
20260506020149 61 178 2.0 7.0 0.00 0.00 0.00 72 1014.5
20260506015646 61 218 4.0 5.0 0.00 0.00 0.00 73 1014.5
20260506015143 61 155 3.0 5.0 0.00 0.00 0.00 73 1014.3
20260506014641 61 250 3.0 7.0 0.00 0.00 0.00 73 1014.3
20260506014136 60 214 4.0 6.0 0.00 0.00 0.00 74 1014.1
20260506013635 60 223 3.0 6.0 0.00 0.00 0.00 74 1014.0
20260506013132 60 331 2.0 7.0 0.00 0.00 0.00 73 1014.2
20260506012627 60 338 0.0 3.0 0.00 0.00 0.00 74 1014.2
20260506012124 60 328 3.0 5.0 0.00 0.00 0.00 74 1014.0
20260506011622 60 265 4.0 5.0 0.00 0.00 0.00 74 1013.9
20260506011118 60 186 2.0 8.0 0.00 0.00 0.00 73 1013.8
20260506010617 60 256 1.0 3.0 0.00 0.00 0.00 73 1014.0
20260506010113 60 253 3.0 7.0 0.00 0.00 0.00 73 1013.8
20260506005610 60 193 3.0 7.0 0.00 0.00 0.00 73 1013.8
20260506005107 61 165 3.0 8.0 0.00 0.00 0.00 72 1013.8
20260506004604 61 218 4.0 8.0 0.00 0.00 0.00 72 1013.7
20260506004100 61 198 5.0 6.0 0.00 0.00 0.00 72 1013.6
20260506003556 61 196 4.0 8.0 0.00 0.00 0.00 72 1013.5
20260506003053 61 240 2.0 6.0 0.00 0.00 0.00 71 1013.4
20260506002549 61 340 1.0 3.0 0.00 0.00 0.00 72 1013.3
20260506002045 61 257 1.0 6.0 0.00 0.00 0.00 71 1013.3
20260506001541 61 237 2.0 3.0 0.00 0.00 0.00 71 1013.2
20260506001039 61 177 3.0 5.0 0.00 0.00 0.00 71 1012.9
20260506000536 61 311 3.0 3.0 0.00 0.00 0.00 71 1013.0
20260506000033 61 242 2.0 3.0 0.00 0.00 0.00 71 1013.0
20260505235531 61 78 2.0 5.0 0.00 0.00 0.00 71 1013.0
20260505235028 61 241 2.0 3.0 0.00 0.00 0.00 71 1012.9
20260505234525 61 288 2.0 3.0 0.00 0.00 0.00 71 1012.9
20260505234022 61 321 2.0 5.0 0.00 0.00 0.00 71 1012.8
20260505233519 62 260 2.0 5.0 0.00 0.00 0.00 70 1012.7
20260505233017 62 314 2.0 3.0 0.00 0.00 0.00 70 1012.4
20260505232514 62 309 3.0 5.0 0.00 0.00 0.00 69 1012.3
20260505232011 62 302 3.0 7.0 0.00 0.00 0.00 69 1012.3
20260505231508 63 328 3.0 8.0 0.00 0.00 0.00 68 1011.9
20260505231007 63 59 2.0 3.0 0.00 0.00 0.00 68 1011.8
20260505230504 63 143 5.0 10.0 0.00 0.00 0.00 67 1011.8
20260505230000 64 175 5.0 6.0 0.00 0.00 0.00 67 1012.2
20260505225457 64 157 3.0 5.0 0.00 0.00 0.00 66 1012.3
20260505224953 64 194 2.0 3.0 0.00 0.00 0.00 66 1012.4
20260505224450 65 254 4.0 8.0 0.00 0.00 0.00 65 1012.3
20260505223947 65 158 7.0 13.0 0.00 0.00 0.00 64 1012.3
20260505223444 65 205 3.0 5.0 0.00 0.00 0.00 65 1012.3
20260505222940 65 173 3.0 8.0 0.00 0.00 0.00 64 1012.5
20260505222437 65 326 5.0 7.0 0.00 0.00 0.00 64 1012.2
20260505221933 66 164 3.0 3.0 0.00 0.00 0.00 64 1012.0
20260505221430 66 290 4.0 6.0 0.00 0.00 0.00 64 1012.2
20260505220928 66 247 2.0 6.0 0.00 0.00 0.00 64 1011.9
20260505220424 66 305 3.0 7.0 0.00 0.00 0.00 64 1012.1
20260505215922 66 209 5.0 6.0 0.00 0.00 0.00 64 1012.1
20260505215420 66 300 3.0 7.0 0.00 0.00 0.00 64 1012.1
20260505214918 66 226 3.0 6.0 0.00 0.00 0.00 63 1012.0
20260505214415 66 209 3.0 7.0 0.00 0.00 0.00 63 1012.0
20260505213912 67 239 2.0 5.0 0.00 0.00 0.00 63 1011.8
20260505213410 67 103 2.0 9.0 0.00 0.00 0.00 62 1011.9
20260505212906 67 199 3.0 5.0 0.00 0.00 0.00 61 1012.0
20260505212403 67 153 3.0 7.0 0.00 0.00 0.00 61 1012.0
20260505211859 68 337 2.0 3.0 0.00 0.00 0.00 61 1011.9
20260505211357 68 219 2.0 7.0 0.00 0.00 0.00 61 1011.9
20260505210853 69 233 1.0 7.0 0.00 0.00 0.00 60 1011.8
20260505210350 69 234 4.0 6.0 0.00 0.00 0.00 59 1011.8
20260505205847 70 245 3.0 6.0 0.00 0.00 0.00 57 1011.6
20260505205345 70 242 3.0 8.0 0.00 0.00 0.00 58 1011.7
20260505204842 70 168 1.0 3.0 0.00 0.00 0.00 58 1011.7
20260505204340 70 317 2.0 6.0 0.00 0.00 0.00 58 1011.6
20260505203837 69 179 5.0 7.0 0.00 0.00 0.00 59 1011.7
20260505203333 69 176 2.0 6.0 0.00 0.00 0.00 61 1011.7
20260505202829 69 240 3.0 7.0 0.00 0.00 0.00 59 1011.8
20260505202326 71 222 1.0 7.0 0.00 0.00 0.00 59 1012.1
20260505201822 71 304 7.0 9.0 0.00 0.00 0.00 57 1012.1
20260505201320 71 327 4.0 6.0 0.00 0.00 0.00 56 1011.9
20260505200818 72 330 4.0 7.0 0.00 0.00 0.00 57 1012.1
20260505200315 72 225 1.0 5.0 0.00 0.00 0.00 60 1012.2
20260505195810 72 225 5.0 7.0 0.00 0.00 0.00 55 1012.0
20260505195308 72 31 2.0 8.0 0.00 0.00 0.00 56 1011.9
20260505194805 72 247 2.0 7.0 0.00 0.00 0.00 56 1012.0
20260505194302 71 247 4.0 7.0 0.00 0.00 0.00 57 1012.1
20260505193757 72 207 5.0 8.0 0.00 0.00 0.00 56 1012.0
20260505193255 72 156 3.0 10.0 0.00 0.00 0.00 57 1012.1
20260505192753 71 220 5.0 7.0 0.00 0.00 0.00 58 1012.2
20260505192251 72 178 3.0 6.0 0.00 0.00 0.00 57 1012.2
20260505191748 72 236 5.0 8.0 0.00 0.00 0.00 59 1012.2
20260505191247 73 246 7.0 9.0 0.00 0.00 0.00 57 1012.2
20260505190742 72 204 2.0 5.0 0.00 0.00 0.00 57 1012.2
20260505190237 72 243 6.0 8.0 0.00 0.00 0.00 57 1012.3
20260505185734 72 258 2.0 3.0 0.00 0.00 0.00 59 1012.3
20260505185231 72 303 2.0 5.0 0.00 0.00 0.00 57 1012.3
20260505184727 71 206 2.0 8.0 0.00 0.00 0.00 59 1012.3
20260505184224 72 241 3.0 8.0 0.00 0.00 0.00 58 1012.2
20260505183721 71 253 5.0 9.0 0.00 0.00 0.00 58 1012.2
20260505183219 72 252 2.0 8.0 0.00 0.00 0.00 58 1012.2
20260505182714 73 288 4.0 10.0 0.00 0.00 0.00 56 1012.3
20260505182212 72 302 4.0 8.0 0.00 0.00 0.00 58 1012.2
20260505181708 73 196 5.0 6.0 0.00 0.00 0.00 54 1012.2
20260505181206 73 255 3.0 8.0 0.00 0.00 0.00 56 1012.2
20260505180702 73 236 1.0 5.0 0.00 0.00 0.00 56 1012.1
20260505180159 73 229 3.0 10.0 0.00 0.00 0.00 56 1012.3
20260505175655 74 163 4.0 8.0 0.00 0.00 0.00 53 1012.3
20260505175151 74 290 4.0 7.0 0.00 0.00 0.00 52 1012.4
20260505174648 75 194 5.0 8.0 0.00 0.00 0.00 52 1012.3
20260505174144 74 138 3.0 5.0 0.00 0.00 0.00 55 1012.2
20260505173641 73 186 3.0 7.0 0.00 0.00 0.00 56 1012.4
20260505173138 73 189 3.0 6.0 0.00 0.00 0.00 58 1012.8